Theta_e
354 354 354 353 353 353 351 349 351 354 354 353 353 353 354 354 353 353 354 354 353 353 353 355 355 355 353 352 354 355 353 353 355 355 350 346 345 344 347 349 346 345 347 352 355 354 355 356 352 348 349 349 351 354 353 352 352 351 350 350 351 352 354 355 354 352 351 349 347 346 348 348 347 347 346 344 343 345 346 345 345 345 344 343 344
351 352 353 353 352 353 354 353 353 354 354 354 354 353 354 354 352 352 353 354 355 355 354 354 354 355 356 355 354 354 355 354 355 356 354 348 345 346 349 350 348 346 346 349 351 352 354 355 350 346 348 349 350 352 353 351 349 350 349 349 350 350 350 351 351 351 351 349 345 342 344 347 346 343 342 342 344 347 348 347 346 346 345 344 343
349 351 352 352 352 352 353 353 354 354 353 353 353 353 354 355 354 353 354 354 354 354 355 355 354 354 355 355 355 354 354 355 355 355 354 352 350 352 353 352 351 350 348 350 351 351 353 353 352 351 351 352 352 352 353 351 349 348 348 347 349 349 349 349 349 351 352 349 342 339 341 343 341 341 343 345 348 349 347 347 346 346 346 345 345
349 350 350 351 351 352 352 352 353 353 352 352 352 353 352 353 354 354 354 353 353 354 354 355 355 354 353 353 354 355 354 354 353 352 353 354 353 354 354 352 352 352 351 354 355 354 355 356 355 354 353 351 351 350 350 350 348 348 348 347 348 348 348 349 349 350 351 348 345 344 345 344 343 344 346 347 347 346 345 346 347 347 347 347 348
350 350 349 350 351 351 351 351 352 352 351 351 351 351 351 352 353 354 354 353 353 354 354 354 355 355 354 352 353 353 352 350 349 350 354 355 354 354 354 353 353 353 351 352 354 353 354 354 353 353 352 351 352 351 349 349 348 348 348 348 348 347 346 346 346 347 347 347 347 348 347 347 346 346 346 346 346 345 346 347 347 348 347 346 348
351 352 351 351 351 351 351 350 351 351 351 350 350 350 350 350 352 353 354 354 353 353 354 353 354 356 356 354 352 352 350 348 347 349 352 355 355 354 354 353 354 354 352 353 354 352 352 352 351 351 351 350 351 351 350 349 349 348 348 347 347 347 345 345 347 348 348 348 348 347 347 347 346 345 345 345 346 347 348 348 348 348 348 348 348
351 353 354 354 352 351 351 351 351 351 351 351 350 349 349 349 350 352 353 353 353 353 353 353 353 355 355 354 354 354 353 350 348 348 349 352 354 355 355 355 355 354 353 353 354 353 352 352 351 351 351 350 351 351 350 348 348 348 348 348 348 347 347 348 348 345 343 343 342 342 345 346 345 345 347 346 347 348 348 348 349 348 348 348 346
353 353 354 355 356 355 353 352 351 350 349 350 350 350 350 349 349 351 351 350 350 351 351 352 352 353 353 352 352 354 354 353 352 350 348 349 352 355 356 354 353 354 354 354 354 353 351 351 350 350 350 350 351 351 350 349 349 349 348 348 347 347 346 344 340 336 336 338 339 343 346 346 346 347 347 346 347 348 349 350 351 349 348 347 345
354 354 355 357 359 359 356 353 352 351 350 349 350 349 350 350 349 350 351 350 349 350 351 351 352 352 352 352 352 353 353 353 353 352 350 349 351 354 355 354 352 352 353 353 353 352 351 350 349 348 348 349 349 349 349 350 350 349 348 345 343 341 339 337 336 337 340 341 343 346 348 348 347 347 347 348 349 350 351 351 351 350 349 348 347
352 353 355 357 359 360 359 356 353 352 350 349 350 350 350 351 351 350 351 350 349 350 351 351 351 351 351 352 353 353 352 351 352 352 352 351 350 352 355 355 353 353 352 351 351 352 351 349 348 347 347 347 347 347 346 346 347 347 347 345 341 339 338 339 341 343 344 345 346 347 348 349 349 348 348 350 351 351 351 350 350 350 350 349 347
352 351 353 355 355 356 357 356 353 352 352 351 349 349 349 350 351 351 351 351 350 351 351 351 352 351 352 352 352 352 352 350 349 349 350 350 349 348 350 352 352 352 351 351 350 350 349 349 349 347 345 345 345 345 345 346 347 347 347 347 345 343 343 343 343 344 345 346 346 347 348 348 349 349 351 352 351 351 350 350 350 350 350 350 349
351 349 349 351 351 352 353 354 352 352 354 352 350 349 347 347 348 349 352 352 351 351 352 353 353 352 351 352 351 350 351 350 349 349 348 347 347 347 348 349 350 349 348 348 348 347 348 349 349 347 346 345 344 345 346 347 349 349 349 348 347 346 345 344 344 344 344 345 346 346 347 347 348 350 352 352 350 349 350 351 351 351 350 350 350
351 349 348 347 349 350 351 353 351 350 353 354 353 351 348 345 344 345 350 352 351 351 353 353 353 353 353 353 352 350 350 349 348 348 348 347 346 346 347 348 348 347 346 346 346 346 347 348 349 349 349 348 348 348 347 346 348 349 349 349 348 346 345 343 344 345 344 345 346 346 346 348 349 349 350 351 350 350 351 351 351 351 351 351 351
352 351 349 347 349 350 351 351 350 349 350 353 354 353 350 347 345 346 349 349 350 352 352 351 351 352 353 353 352 351 350 350 349 347 346 346 346 346 346 347 348 347 346 346 346 346 346 346 347 347 348 349 350 350 348 347 348 348 348 349 349 346 344 344 344 346 346 347 346 345 346 348 349 348 349 351 351 351 351 351 351 351 350 350 351
352 352 351 350 350 350 350 350 350 350 350 350 351 352 350 349 349 348 348 349 351 351 350 348 348 350 352 352 351 351 350 350 349 347 346 345 345 346 346 347 348 347 346 346 346 346 345 345 346 347 347 348 348 348 348 348 349 350 350 350 348 346 345 345 346 347 348 347 347 347 348 348 349 349 349 350 351 351 351 350 349 349 350 351 352
352 352 352 352 352 351 351 350 350 350 350 350 350 349 349 350 351 350 349 350 352 351 349 349 348 348 350 350 350 350 350 349 348 347 346 346 345 346 346 346 347 347 346 345 345 345 345 345 347 348 348 349 349 349 349 349 349 350 351 351 349 348 347 346 347 348 348 348 348 348 348 349 349 349 349 350 350 350 348 348 349 349 351 352 352
350 350 350 350 350 350 351 351 350 350 351 351 350 349 349 350 350 350 350 351 351 350 350 351 350 347 347 348 350 350 349 347 347 346 345 346 346 347 346 346 348 348 346 345 346 347 347 345 345 347 347 349 349 350 350 350 349 350 350 350 348 347 347 349 350 351 350 349 348 348 348 349 348 348 349 350 348 347 347 349 351 351 350 352 353
346 347 348 348 348 349 349 349 348 348 349 350 350 349 350 350 350 349 349 349 349 347 348 350 350 349 347 347 348 349 348 347 347 347 346 346 347 348 348 348 349 348 346 346 347 349 348 347 347 348 348 349 350 350 351 351 350 349 348 348 348 348 350 350 351 351 350 349 349 349 348 348 348 349 348 346 345 346 348 351 352 351 351 352 353
338 338 340 342 343 345 345 345 345 346 345 346 347 348 348 348 348 348 347 347 346 345 346 348 350 350 349 347 347 347 347 348 348 347 347 347 348 350 350 350 351 350 349 349 349 349 349 348 348 349 351 352 351 351 351 350 350 349 349 349 349 350 351 351 350 350 349 348 349 348 348 349 349 347 345 344 346 348 349 350 350 350 350 350 350
333 333 333 334 334 334 336 338 340 340 340 341 342 344 345 346 346 346 346 346 346 346 347 348 348 348 349 349 349 347 346 347 348 347 346 347 348 349 350 350 350 349 349 350 350 351 350 349 347 347 349 351 350 350 350 350 350 350 350 350 350 350 349 349 349 349 349 350 349 349 348 347 343 341 343 346 348 349 349 350 350 350 351 349 348
333 333 332 332 331 330 331 334 335 335 336 336 337 339 341 342 343 344 345 345 346 347 347 347 347 348 347 348 350 349 348 348 348 347 345 345 347 349 349 348 348 348 350 351 351 351 350 349 348 347 349 350 350 350 350 350 350 349 349 349 348 348 348 348 349 349 349 348 345 341 340 340 339 342 347 349 349 348 348 346 344 342 341 342 344
329 331 331 330 327 326 329 332 334 334 334 334 335 336 338 339 341 342 343 344 344 344 344 344 344 344 344 345 347 348 349 349 349 348 347 347 348 349 348 349 349 350 350 351 351 351 350 350 348 348 349 350 349 349 350 349 346 343 342 343 342 343 342 340 338 336 335 335 335 334 338 342 345 346 347 345 343 342 340 333 327 325 328 332 336
319 320 319 319 317 318 323 327 329 331 333 334 334 334 336 338 339 340 340 340 340 341 342 341 341 342 342 342 343 343 345 346 347 347 346 346 347 348 348 349 349 349 349 350 350 350 349 349 349 349 349 349 348 349 347 342 336 330 328 329 330 330 328 324 323 324 325 329 335 340 343 343 341 338 336 335 334 332 327 321 319 323 330 331 328
312 311 313 315 315 313 314 318 321 325 331 333 333 333 333 334 337 338 338 338 338 339 339 338 339 339 339 339 339 339 340 341 342 342 340 340 342 344 345 347 347 347 347 347 347 347 346 346 346 345 343 339 336 335 331 325 320 317 316 316 317 318 320 324 329 334 336 336 338 340 339 335 331 329 329 329 326 323 320 318 320 326 331 330 325
310 314 319 321 322 320 317 314 314 317 323 326 329 332 333 332 333 335 335 336 337 337 337 337 337 336 335 335 334 334 334 334 335 335 334 335 336 336 337 340 341 341 341 340 338 338 337 338 337 333 329 325 323 323 321 318 316 315 316 317 320 325 332 337 340 342 342 340 338 336 333 328 324 322 320 321 320 319 319 321 324 328 329 325 320
314 318 320 318 320 323 324 321 318 317 320 322 323 326 329 330 331 332 333 333 335 335 335 335 335 335 335 335 335 334 333 332 330 331 331 331 331 332 333 335 335 336 336 335 335 334 333 333 333 331 328 326 325 324 322 319 319 321 323 327 332 335 338 341 342 341 339 337 335 332 328 323 318 317 319 321 321 321 323 326 328 326 322 317 314
323 323 321 318 318 320 321 324 324 321 323 325 324 324 327 328 328 329 331 331 332 334 334 334 333 333 334 335 335 335 334 333 332 333 333 332 331 331 331 332 332 332 332 332 333 333 331 329 328 326 323 322 322 323 324 324 327 329 331 334 336 336 334 334 335 335 333 332 332 330 327 322 318 320 323 321 321 324 328 329 325 318 314 313 313
325 325 324 322 322 321 320 323 326 323 322 325 325 325 328 327 323 323 329 332 330 329 331 332 332 332 332 333 334 334 334 334 333 333 333 332 331 331 331 329 327 325 324 323 322 322 321 318 315 313 314 317 322 330 334 334 335 335 334 334 334 333 331 330 331 332 332 333 333 331 326 322 320 321 320 318 322 327 326 321 315 314 315 317 318
322 325 325 324 324 325 323 323 326 327 325 324 322 319 318 317 311 310 319 327 329 328 329 330 331 332 331 332 333 333 333 333 333 333 333 332 332 332 330 325 319 314 312 312 310 310 310 308 307 311 318 324 330 335 337 337 337 337 335 334 333 332 331 332 332 332 332 332 331 329 326 323 320 318 318 321 326 326 318 313 316 321 322 322 321
314 316 319 320 322 325 326 324 324 327 328 328 323 316 311 312 312 309 310 313 316 319 321 322 324 327 327 328 330 331 331 331 331 330 330 330 328 326 321 314 309 307 306 306 306 307 307 307 313 322 328 331 333 333 332 333 336 336 334 333 333 331 331 331 330 329 330 330 328 326 324 321 319 319 323 327 327 322 316 318 324 325 323 322 323
311 311 311 312 315 319 320 317 316 320 323 323 321 318 319 321 322 320 315 310 307 308 309 309 311 313 313 314 315 316 317 317 316 315 315 314 313 311 308 306 305 306 306 306 307 307 306 309 321 331 333 333 333 332 331 331 333 333 332 332 332 331 330 329 329 328 328 326 324 322 321 320 320 323 326 327 324 320 321 324 326 324 323 324 325
314 312 308 306 309 311 310 307 305 308 311 311 311 317 324 326 325 324 321 315 312 311 310 309 309 308 308 307 307 307 307 307 306 306 306 306 306 306 306 306 306 307 307 307 308 307 307 316 327 331 331 332 333 332 331 331 331 331 331 331 330 329 328 328 327 326 324 323 322 322 320 319 321 325 326 324 322 323 325 326 326 325 324 325 325
311 309 305 304 306 307 308 308 305 304 306 305 304 312 321 323 323 324 322 319 319 319 318 316 314 311 311 310 309 309 308 307 307 307 306 307 307 307 307 308 308 308 309 310 312 310 310 320 328 329 328 330 331 329 329 330 330 330 329 328 328 327 327 326 325 323 322 323 323 322 320 319 321 322 322 322 323 325 326 326 325 325 325 325 325
310 310 309 308 308 308 309 309 308 305 305 304 305 313 319 318 316 319 321 321 321 321 320 320 318 316 314 313 312 311 310 309 308 308 308 308 308 309 309 309 310 312 316 318 319 317 316 323 328 328 328 330 329 328 328 328 327 327 327 326 325 325 325 325 323 322 322 323 322 321 319 320 321 321 321 323 324 324 324 324 324 324 324 324 323
314 314 313 313 314 314 313 312 311 310 309 307 307 311 315 316 317 321 322 321 321 322 322 322 321 318 316 315 314 312 312 311 310 309 309 308 308 309 309 309 311 318 323 324 323 322 322 326 327 326 326 327 327 326 326 326 325 325 325 324 324 324 323 323 322 322 322 321 321 320 320 321 321 321 322 322 322 321 321 322 322 322 322 322 322
316 316 316 315 316 317 315 314 314 314 314 313 311 309 311 316 320 322 321 321 322 323 322 322 321 318 316 317 317 316 314 314 313 312 312 312 311 311 311 311 314 321 325 325 324 324 324 325 325 324 324 324 324 324 324 324 324 324 323 323 323 323 322 322 322 321 321 320 320 320 321 320 320 320 320 320 320 320 320 319 319 320 321 321 321
317 317 316 315 315 316 315 315 315 314 314 315 315 314 315 318 320 320 320 321 322 321 319 319 319 318 319 321 321 318 316 315 314 314 316 318 317 317 317 317 319 322 324 324 325 324 324 324 324 324 323 323 323 323 323 323 323 323 322 323 323 322 321 321 321 320 319 319 319 320 319 319 319 319 319 318 318 318 318 318 318 319 319 318 318
315 315 315 315 315 315 315 314 315 315 314 315 317 318 319 318 318 318 319 320 320 319 319 319 320 320 321 321 320 318 317 317 315 314 315 318 320 320 320 321 321 322 322 323 323 323 322 323 323 323 323 323 323 323 323 323 323 323 323 323 323 322 322 321 320 319 319 319 319 319 318 318 318 317 317 317 317 317 317 317 317 316 315 315 315
314 314 314 314 314 314 314 315 314 314 315 316 317 318 319 318 318 318 318 319 319 319 319 319 319 319 320 320 319 318 318 317 315 313 313 316 319 319 320 320 320 320 320 321 321 320 321 321 321 322 322 322 322 323 323 323 323 323 323 323 322 322 322 321 320 319 318 318 318 318 318 318 317 317 316 316 316 316 316 315 315 314 314 314 315
314 314 313 314 314 313 314 314 314 315 316 317 316 315 316 316 317 317 317 317 317 318 318 318 318 318 317 317 317 317 316 315 314 311 310 313 316 317 318 318 318 318 318 318 318 318 318 318 319 320 320 320 321 321 322 322 323 323 323 323 322 321 321 320 319 318 318 318 317 317 317 317 317 317 316 315 315 315 315 314 314 314 314 314 314
314 315 314 313 313 313 313 313 314 316 316 315 314 313 313 314 314 315 315 316 316 316 317 317 316 316 316 315 315 314 313 312 311 310 309 311 313 314 315 315 315 316 316 316 316 316 316 316 316 317 317 318 318 319 319 320 320 321 321 321 321 321 320 319 318 318 317 317 317 316 316 316 315 315 315 314 314 314 313 313 313 313 313 313 313
315 316 315 314 313 313 313 314 316 316 315 314 314 313 313 313 313 313 313 314 315 314 315 315 315 314 314 313 313 312 311 310 310 310 311 312 312 312 312 312 313 313 314 314 314 315 314 314 313 313 313 314 315 315 316 316 317 318 319 319 320 320 319 318 318 317 316 316 315 315 315 314 313 313 313 313 313 312 312 312 312 312 312 312 312
316 316 316 315 315 314 313 315 316 315 314 314 314 314 313 313 311 310 311 312 313 313 313 313 313 313 312 311 311 310 310 310 310 310 310 310 310 310 310 310 311 311 311 311 312 313 313 313 312 311 310 310 311 311 312 312 313 313 313 314 314 315 315 315 316 315 315 314 313 313 312 311 310 310 310 311 311 311 311 311 311 311 310 310 310
314 315 315 315 314 313 313 314 314 313 313 313 313 313 312 311 309 309 310 311 312 312 312 311 311 311 311 310 310 309 309 309 309 309 309 309 308 308 308 308 308 309 309 309 310 310 310 310 310 310 309 308 308 308 308 308 308 308 308 309 309 309 309 310 310 310 310 310 310 310 309 308 308 308 308 308 308 308 308 308 309 308 308 308 308
314 313 313 313 312 312 312 312 312 312 312 312 312 311 311 310 310 310 310 311 311 311 310 310 310 310 309 309 308 308 308 308 307 307 307 307 307 307 307 307 307 307 306 306 307 307 307 308 308 307 307 307 306 306 306 306 306 306 306 307 307 307 307 307 307 307 307 307 307 307 307 307 307 307 307 307 306 306 306 306 306 306 306 305 305
313 312 312 312 312 312 312 312 312 312 312 311 311 311 311 310 310 310 310 310 310 309 309 308 308 308 307 307 307 307 307 306 306 305 305 305 305 305 305 305 305 305 305 304 304 304 305 305 305 305 305 304 304 304 304 304 305 305 306 306 306 306 306 306 306 306 306 306 306 306 306 306 306 305 305 305 305 305 305 304 304 304 304 303 303
312 311 311 312 312 312 312 312 312 312 311 310 310 309 309 309 309 309 309 308 308 307 307 306 306 306 306 306 306 305 305 305 304 304 304 304 303 303 303 303 303 303 303 303 303 303 303 303 303 303 303 302 302 302 302 302 303 303 304 304 304 304 305 305 305 305 304 304 304 304 304 304 304 304 303 303 303 303 303 303 302 302 302 302 302
312 311 311 311 311 311 311 311 311 310 309 309 308 308 307 307 307 307 307 306 306 306 305 305 305 305 305 305 304 304 303 303 303 303 302 302 302 302 302 302 302 302 302 301 301 301 301 301 301 301 301 301 301 301 301 301 301 301 302 302 302 303 303 303 303 303 303 303 303 302 302 302 302 302 302 301 301 301 301 301 300 301 301 301 302
310 309 309 309 309 309 309 309 309 309 309 308 307 307 306 306 305 305 305 305 305 304 304 304 304 304 303 303 303 302 302 302 301 301 301 301 301 301 300 300 300 300 300 300 299 299 299 299 299 300 300 300 300 300 300 300 300 300 300 301 301 301 301 301 301 300 300 300 300 300 300 299 299 299 299 299 299 299 299 300 300 301 301 302 302
308 307 308 308 308 308 307 308 308 308 308 307 306 306 305 305 304 304 304 303 303 303 303 303 302 302 302 301 301 301 301 300 300 300 300 300 300 299 299 299 299 299 298 298 298 298 298 298 299 299 299 298 298 298 298 299 299 299 299 299 299 299 299 299 299 298 298 298 298 297 297 297 298 298 298 299 299 300 300 300 301 302 302 302 302
307 306 306 307 307 306 306 306 306 306 306 305 305 304 304 304 304 303 303 303 302 302 302 301 301 301 300 300 300 300 300 299 299 299 299 298 298 298 298 298 298 298 297 297 297 297 297 297 297 297 297 297 297 297 298 298 298 298 298 298 298 298 297 297 297 297 296 296 296 296 297 297 298 298 299 300 301 301 301 301 302 302 302 302 302
Wind_Speed
19 19 18 18 18 18 18 19 19 18 17 15 14 13 14 14 13 13 12 10 10 11 12 12 11 9 9 9 10 10 8 7 8 8 8 7 6 6 7 5 4 4 4 5 7 7 5 6 7 6 6 6 5 4 4 5 5 5 5 4 5 6 5 6 9 11 11 11 12 11 10 12 13 13 14 16 16 17 17 19 20 21 21 21 21
20 19 18 18 18 18 18 18 18 18 17 16 15 14 14 14 13 12 13 13 13 13 12 12 12 11 11 11 10 11 11 9 9 9 8 7 6 6 6 5 4 5 6 6 6 7 7 8 6 5 4 4 5 4 4 6 6 5 6 6 6 7 7 7 9 12 13 13 13 13 11 11 13 13 14 15 16 16 17 19 20 20 20 20 21
20 20 18 18 19 18 18 18 18 18 17 17 16 16 15 15 14 13 13 13 14 13 12 11 12 12 12 12 12 12 12 10 10 11 9 8 7 7 8 8 6 6 7 7 6 6 7 7 6 5 4 5 6 6 5 6 6 5 5 6 7 8 7 9 10 11 12 14 15 15 15 14 15 15 16 16 16 17 19 20 20 20 20 20 20
19 20 19 18 18 18 18 18 17 17 18 17 17 16 15 15 15 15 14 13 13 13 13 12 13 13 13 13 14 14 12 11 11 11 10 10 9 8 9 9 8 8 8 8 8 7 6 8 8 7 7 8 9 8 7 6 5 5 6 6 7 7 6 8 9 10 12 15 16 17 17 18 18 18 18 18 18 20 20 20 21 22 22 21 21
18 19 20 19 19 18 18 18 17 17 17 17 17 17 16 16 16 15 15 14 13 13 14 14 13 14 14 13 14 14 14 13 11 11 11 10 9 9 9 10 9 9 9 9 9 9 9 9 9 8 8 9 9 8 7 6 7 6 6 6 7 7 8 9 10 11 13 16 17 17 18 19 19 18 17 18 19 21 21 21 21 22 23 24 23
18 18 19 20 21 20 19 18 18 17 17 17 17 17 17 16 16 16 15 15 14 14 14 14 14 14 14 13 14 14 14 13 12 12 11 10 11 11 9 9 10 11 10 9 9 9 9 9 9 9 9 9 9 9 9 9 9 7 7 7 8 10 11 10 10 11 12 14 15 16 17 17 17 17 17 18 19 20 21 22 22 22 24 25 25
19 19 19 20 21 21 20 19 18 17 17 17 17 16 17 17 16 18 18 17 17 17 16 15 15 15 15 14 14 14 14 14 13 12 12 11 12 11 9 10 11 11 10 10 10 10 10 10 10 11 11 11 10 9 9 10 8 7 8 8 8 10 10 9 10 12 13 14 15 16 16 16 16 17 17 16 17 18 22 25 26 25 25 26 27
21 21 21 21 21 21 20 19 18 17 16 17 17 16 16 16 17 19 20 19 18 18 16 15 15 15 16 15 14 15 16 15 14 14 13 13 12 11 12 12 12 11 11 11 11 11 11 11 11 11 12 12 11 11 10 9 8 8 9 9 9 10 12 13 15 16 16 15 16 16 17 16 16 16 16 18 20 22 24 26 27 28 29 29 30
24 24 24 23 21 20 20 19 18 18 17 17 18 18 16 16 16 18 18 17 17 16 15 15 15 16 16 14 14 15 16 16 15 14 13 13 12 11 12 13 12 13 13 12 11 11 11 11 11 10 11 11 12 12 12 12 12 13 14 15 16 15 15 16 17 16 16 16 17 17 17 17 17 18 20 22 23 25 25 26 27 30 31 32 31
23 25 26 26 23 20 19 19 20 20 20 19 19 20 19 16 15 16 17 17 17 17 17 17 17 17 16 15 15 15 16 15 15 14 14 13 12 12 12 13 14 14 14 12 12 11 11 12 12 12 12 12 14 15 16 16 16 16 17 18 17 16 15 15 15 16 17 17 18 19 19 19 20 21 23 23 23 24 26 29 31 32 32 34 35
19 21 23 25 24 22 19 19 20 21 21 22 22 23 23 20 17 16 17 18 19 19 19 18 18 17 15 15 16 15 16 16 14 15 16 15 13 12 12 13 13 14 14 12 12 12 12 12 12 12 13 13 15 17 17 16 16 16 16 15 15 15 16 16 17 17 17 18 19 20 21 22 23 23 23 23 24 26 28 30 32 33 33 35 36
17 18 20 21 22 23 21 20 22 23 22 23 25 25 24 24 22 21 20 20 19 19 20 19 20 20 18 16 16 15 16 17 15 14 16 16 14 13 13 12 12 12 12 12 12 13 13 13 13 13 13 13 15 17 16 14 13 16 17 15 14 15 16 17 18 18 18 19 20 21 22 23 24 23 23 24 27 29 30 31 31 32 32 32 33
17 18 20 21 22 23 22 21 22 24 24 23 25 25 24 24 25 24 23 22 19 18 19 18 18 19 19 17 18 18 17 17 15 14 15 15 15 14 14 14 13 12 12 12 13 13 13 14 14 14 14 15 16 17 17 14 14 16 18 17 15 15 16 17 17 18 18 19 21 22 22 22 23 24 24 26 28 30 31 31 31 30 30 30 30
18 19 21 22 23 24 23 22 22 23 24 23 25 25 24 24 24 24 24 23 21 21 20 18 16 16 17 16 17 18 17 17 17 16 14 13 14 15 15 15 14 13 12 13 13 14 14 15 15 15 16 18 18 18 18 17 17 19 21 20 19 19 19 18 17 17 18 20 22 22 22 22 24 26 26 27 29 30 30 31 31 29 28 27 26
17 18 18 19 21 23 23 23 23 23 24 25 27 26 23 23 23 24 25 25 24 24 24 22 19 18 17 17 16 16 17 19 19 17 15 14 15 16 17 16 15 14 13 13 14 16 17 17 17 18 20 21 21 20 19 19 20 21 22 23 23 23 22 21 20 19 19 20 22 23 24 24 25 26 27 27 28 29 29 29 27 26 25 24 24
16 16 16 17 19 20 20 21 21 21 21 22 25 25 23 22 22 23 24 25 26 27 26 24 21 19 18 19 18 19 20 20 19 18 17 17 17 18 19 18 17 16 16 16 17 18 18 19 19 20 21 22 22 22 21 21 21 21 22 23 23 23 23 22 22 21 21 21 22 23 24 24 25 26 27 27 28 27 26 24 21 21 22 23 23
13 14 14 15 16 16 18 18 17 18 19 20 21 23 23 23 23 23 23 22 22 24 24 23 21 20 20 20 20 21 21 20 20 20 19 19 20 20 20 20 19 20 21 20 18 19 20 21 21 22 23 22 22 22 23 22 21 21 22 22 23 24 23 21 20 20 22 23 24 24 24 24 25 26 27 27 25 21 20 19 19 20 22 23 23
4 7 9 11 11 11 14 16 14 12 14 17 18 20 22 23 23 24 24 22 20 20 21 21 22 22 22 21 21 22 22 21 21 20 20 20 21 22 22 22 23 24 24 22 20 20 21 21 21 22 23 23 23 23 24 24 23 23 24 24 25 24 22 20 21 22 23 25 25 24 25 25 25 26 26 23 18 15 16 18 19 19 20 21 22
8 6 2 1 2 4 6 9 10 9 9 11 13 16 18 20 21 23 23 22 19 19 21 23 23 23 22 22 22 22 22 22 22 21 21 21 23 23 23 24 24 24 24 23 22 22 22 22 21 21 22 22 22 22 23 24 24 24 24 24 25 24 23 23 26 26 26 26 25 25 25 24 24 24 21 17 14 13 15 18 19 19 20 21 23
12 12 10 8 6 5 4 3 2 3 3 4 6 9 12 14 15 16 16 18 18 18 20 22 22 23 22 23 24 25 25 24 24 23 22 23 24 24 24 24 25 24 24 24 24 24 24 24 23 22 22 22 21 21 22 22 21 22 22 22 23 23 24 25 26 26 26 26 25 24 22 21 20 18 14 12 11 12 12 13 15 16 18 20 22
10 10 9 8 8 8 9 10 8 6 6 6 4 1 3 5 5 5 5 8 11 13 13 14 16 19 20 22 24 25 26 26 26 26 26 26 26 24 22 23 23 22 21 20 21 22 23 23 22 21 21 22 22 22 21 20 19 20 20 21 22 22 23 24 23 23 23 22 20 17 15 14 13 11 9 9 9 10 11 13 14 15 16 18 20
9 10 9 7 6 8 11 12 10 9 9 9 9 8 6 3 2 1 1 1 3 6 7 7 8 10 12 15 16 17 19 21 23 25 26 25 23 19 17 18 18 17 16 15 15 18 19 20 20 19 19 20 20 21 21 19 18 19 19 19 19 18 18 18 17 17 16 15 13 12 10 8 8 7 9 11 12 13 16 18 18 18 16 15 16
8 7 7 6 6 7 9 10 10 10 10 8 8 10 10 8 5 3 2 3 2 1 1 2 2 4 6 8 8 8 10 12 15 17 17 15 15 13 13 13 12 11 12 13 14 17 18 18 17 16 17 18 18 18 18 17 15 14 13 12 12 13 13 13 12 12 12 10 9 7 7 8 10 11 12 14 16 18 20 21 21 18 17 16 16
8 7 7 7 7 6 6 6 8 9 9 8 8 10 10 8 7 6 7 7 7 7 7 6 5 4 2 1 2 3 3 4 6 9 8 7 7 7 7 8 8 7 7 11 13 15 16 15 14 13 12 12 11 11 11 11 11 11 11 11 11 11 10 10 9 9 10 9 8 8 10 13 14 15 15 17 19 21 22 22 20 19 19 20 20
6 7 7 7 7 8 9 7 6 7 8 8 9 9 7 7 7 8 8 6 6 8 8 8 9 9 8 8 7 4 2 1 2 2 2 1 1 3 3 3 4 5 6 6 8 10 11 10 9 9 8 7 7 7 8 10 10 10 10 10 8 6 6 6 7 9 12 13 14 13 14 15 16 17 18 18 19 20 21 20 19 19 20 22 24
10 9 8 6 6 6 6 7 8 10 11 10 9 7 6 5 5 6 6 5 4 5 5 5 5 5 6 8 7 6 4 3 3 4 4 3 4 4 3 2 1 1 2 3 4 6 7 8 8 8 8 8 8 8 9 10 10 8 7 5 2 2 3 5 9 13 16 18 17 15 15 17 19 19 18 18 19 20 19 19 19 21 23 26 27
11 10 9 9 8 7 5 5 7 7 8 8 9 8 7 4 3 5 6 6 5 4 4 4 5 5 6 5 5 6 3 0 2 3 5 5 5 5 6 6 6 6 5 5 7 7 7 9 10 10 9 9 9 8 8 7 7 6 4 1 1 2 5 8 12 16 18 17 16 15 17 20 21 18 17 18 19 17 16 18 22 24 25 25 26
8 7 7 7 7 6 5 5 5 4 1 4 7 7 5 2 1 3 8 9 7 6 4 5 7 6 5 6 7 6 4 2 4 5 7 7 7 7 9 9 10 10 9 9 10 9 9 9 10 10 8 7 6 5 5 5 5 5 3 1 2 4 6 9 12 13 13 14 15 17 21 21 19 17 18 19 17 15 18 21 23 23 22 22 23
6 5 5 5 4 4 4 3 4 4 4 2 2 4 4 4 5 1 6 8 7 6 5 5 7 8 8 7 6 5 5 6 7 8 10 10 11 13 14 14 13 12 11 10 9 9 8 8 7 6 6 6 6 6 7 6 5 4 2 1 3 4 4 7 10 11 13 15 18 20 21 20 18 18 18 17 15 18 21 21 20 19 19 20 21
3 2 3 2 2 3 3 1 4 7 6 4 2 2 1 3 6 5 1 4 6 8 8 8 8 9 10 10 11 11 12 12 13 13 14 15 16 17 17 16 14 13 11 10 8 7 6 4 2 2 3 5 6 6 6 5 3 1 1 2 3 3 6 11 13 15 17 19 20 21 20 19 18 16 15 15 17 20 20 18 17 17 18 19 19
2 0 3 5 7 7 4 4 5 6 5 2 2 4 5 7 8 8 6 4 3 4 6 7 9 11 12 12 13 13 14 15 16 16 16 16 16 17 16 15 14 12 11 9 7 5 4 3 1 2 4 5 6 5 4 4 4 5 5 4 4 6 10 14 17 18 20 21 22 21 20 17 15 14 14 16 19 19 18 17 16 18 18 18 19
4 3 4 5 8 9 7 4 3 4 3 3 1 2 4 7 9 9 8 7 6 5 5 4 5 7 9 10 11 11 12 13 14 14 14 14 14 14 13 12 11 10 9 8 5 3 3 4 3 3 4 5 5 5 5 4 5 5 6 6 7 8 12 16 20 21 21 20 19 19 18 16 13 13 15 18 18 18 18 17 18 18 19 19 19
5 4 3 3 4 3 2 1 1 1 1 3 1 2 2 2 5 6 8 9 9 8 8 7 7 6 6 7 8 9 10 11 11 12 12 11 11 10 9 8 7 6 5 4 3 2 3 5 5 3 5 5 4 4 4 4 6 7 7 8 9 10 12 17 20 19 16 15 16 18 18 16 14 15 17 17 17 17 18 18 19 19 19 19 19
4 4 3 2 1 1 2 3 3 4 3 3 2 2 0 3 3 4 6 8 9 10 10 11 11 10 9 9 9 9 10 10 11 10 9 9 9 8 7 6 3 3 4 4 5 3 3 6 3 3 6 6 5 4 3 5 7 8 8 10 10 10 12 15 17 15 13 13 17 18 16 15 15 17 17 17 17 17 18 19 19 19 19 20 21
4 3 2 2 3 2 3 4 5 5 6 5 4 2 1 3 4 4 4 5 6 8 10 11 12 11 12 13 13 13 12 11 11 9 8 7 7 6 6 4 1 4 6 6 6 4 1 3 1 5 7 6 7 7 6 7 8 7 7 7 8 9 11 11 12 12 12 14 16 16 15 16 16 16 16 17 18 19 19 19 19 20 21 22 23
4 2 1 1 1 1 3 4 6 6 7 7 6 4 3 3 3 3 3 4 3 3 5 8 10 12 12 13 14 15 13 10 8 8 8 8 8 7 6 4 3 4 6 7 6 5 4 3 4 7 8 8 9 9 10 10 9 9 11 13 13 13 13 11 11 13 13 14 15 15 15 16 16 15 16 17 18 19 20 20 20 20 20 21 23
4 3 3 3 2 2 3 4 5 7 7 7 7 7 5 3 3 3 3 3 3 4 4 5 9 11 11 10 12 14 11 8 6 5 6 9 10 9 8 7 6 5 4 4 4 4 5 4 5 6 7 7 8 10 11 12 12 11 13 15 17 17 17 17 17 16 13 14 15 15 15 16 16 16 18 19 19 19 21 21 21 20 21 22 25
7 5 4 4 3 4 4 4 5 5 6 6 6 6 5 4 5 4 3 4 5 6 5 4 5 6 5 5 8 11 11 10 9 5 1 5 9 8 6 5 5 4 3 2 2 3 7 9 8 8 8 8 8 10 12 14 13 12 11 13 15 17 19 19 18 15 12 12 13 14 14 15 16 17 19 21 21 21 20 21 23 25 26 27 26
10 8 7 7 7 6 5 5 5 4 4 3 2 3 4 5 5 4 4 3 4 4 4 3 4 6 6 7 10 13 15 17 18 14 7 1 2 2 2 1 1 3 3 3 4 7 11 12 11 11 11 12 12 13 14 15 14 14 13 11 10 11 13 14 14 13 14 14 15 15 16 15 15 15 17 18 20 20 21 23 25 27 27 26 25
13 13 12 10 9 8 7 7 6 4 2 2 3 4 4 4 4 5 5 4 4 4 3 4 7 10 11 11 15 18 19 21 23 20 13 6 4 5 5 5 4 1 1 3 4 8 12 15 16 16 16 16 16 17 18 17 16 16 15 14 11 10 9 9 9 12 15 17 17 17 17 18 17 17 18 19 20 22 22 23 24 25 25 25 25
13 14 15 14 12 11 10 9 7 6 7 8 8 7 5 5 7 7 6 5 5 4 3 4 9 12 12 13 16 19 20 20 21 18 11 6 4 5 6 8 7 4 2 4 6 6 8 12 15 18 19 20 20 20 20 21 20 19 18 17 16 15 14 13 13 14 17 18 18 17 17 18 19 21 21 22 23 23 22 22 23 24 24 24 25
13 11 14 16 15 13 11 7 5 8 11 11 9 8 7 7 8 8 7 7 8 7 6 6 9 13 14 14 16 19 18 15 12 9 5 3 3 5 6 6 4 4 6 9 10 10 10 10 11 12 14 17 20 20 21 22 23 24 23 22 22 21 20 19 19 20 20 20 20 21 21 22 22 22 22 21 21 21 21 22 23 23 23 23 23
15 12 11 12 12 12 9 6 7 9 10 9 8 9 10 11 11 11 10 8 8 8 7 8 9 11 13 14 15 15 12 8 4 4 4 4 5 7 8 6 4 7 10 11 12 13 14 12 11 10 10 11 13 15 16 19 21 22 23 23 23 23 23 24 25 26 26 25 25 25 25 23 21 19 19 18 18 19 20 21 22 22 23 24 25
18 16 12 11 12 12 11 11 11 10 9 10 12 14 15 15 13 11 8 7 7 7 8 7 7 7 9 10 10 9 7 5 4 4 5 5 6 7 8 7 7 10 13 13 13 14 14 14 14 15 14 13 12 10 10 12 14 14 15 16 17 18 20 22 23 24 24 25 26 26 25 24 23 23 23 23 22 21 22 23 24 25 26 27 28
11 12 12 11 11 12 13 14 13 10 10 13 14 13 12 13 11 9 7 7 6 6 6 5 5 6 6 7 6 6 6 6 6 5 5 5 5 6 6 7 8 10 13 13 13 14 13 14 15 15 15 15 13 10 9 9 9 9 12 15 16 17 19 20 20 21 22 24 25 26 26 27 28 28 29 29 27 25 25 25 25 26 28 28 29
6 8 10 10 10 11 12 11 10 9 11 13 12 9 7 8 8 8 7 6 7 7 8 8 8 8 7 6 5 5 6 6 6 6 6 6 6 6 7 8 8 9 10 11 11 11 11 12 12 12 13 13 13 11 11 10 7 7 12 17 18 18 20 20 21 23 24 24 26 27 28 29 30 30 31 32 32 31 30 29 28 27 29 31 32
11 10 10 10 12 13 12 11 10 11 11 11 10 9 7 7 7 7 7 7 8 10 10 10 9 8 7 6 5 6 7 7 7 7 7 7 7 7 8 9 9 8 9 9 9 9 9 10 10 10 11 12 12 12 13 12 8 7 13 19 20 19 21 22 23 25 26 26 27 28 29 30 31 32 34 35 36 37 37 37 35 34 34 33 33
17 13 11 12 13 13 12 12 12 12 10 9 9 9 8 7 7 6 6 6 7 7 7 7 7 6 5 5 5 6 7 7 7 7 7 8 7 7 8 9 9 9 9 9 9 10 10 10 10 9 10 10 10 10 10 10 8 9 16 20 21 21 23 24 25 27 28 29 29 31 32 33 34 35 36 37 38 38 38 37 36 33 30 29 28
16 13 12 12 12 11 10 11 11 11 10 9 9 9 8 8 7 7 6 6 5 5 6 6 5 5 5 6 6 6 6 6 7 7 7 7 7 7 7 8 8 9 9 9 10 10 11 10 9 9 9 9 9 8 8 8 9 12 17 20 22 23 25 26 27 28 30 31 32 33 33 33 33 33 33 33 32 31 31 29 27 25 24 24 24
14 10 9 10 9 8 8 9 11 10 9 8 8 8 8 6 6 6 6 6 6 6 7 8 7 6 6 6 6 6 6 7 7 7 7 7 7 8 8 8 8 9 9 9 10 10 9 8 8 8 8 8 9 9 8 8 10 15 19 20 21 23 25 26 28 29 30 30 30 29 27 27 26 26 25 24 24 24 25 24 23 23 25 26 26
10 7 7 8 8 8 7 7 8 8 7 7 7 7 6 5 5 4 5 5 5 5 6 7 7 6 6 6 6 6 7 7 7 7 7 7 7 7 7 8 8 8 8 8 8 8 8 8 8 8 8 8 8 9 8 8 11 17 20 21 23 25 26 26 27 27 25 23 22 22 22 22 22 22 22 21 21 21 22 23 25 27 28 27 26
Wind_Direction
194 196 196 196 199 204 204 202 201 197 199 209 210 203 206 213 212 204 207 213 213 216 210 203 215 218 212 216 215 226 239 221 217 228 227 230 233 233 237 228 224 243 225 203 218 232 242 248 244 238 237 233 234 250 265 276 277 269 284 287 258 259 270 272 294 309 309 309 314 316 320 317 315 315 310 307 309 312 313 316 318 320 324 326 321
196 197 196 197 198 201 205 204 204 203 201 204 208 207 207 216 218 201 202 212 209 217 222 209 211 212 207 213 213 223 240 228 215 227 234 236 237 238 246 244 244 258 251 235 229 229 239 252 253 248 253 275 300 306 275 274 288 289 299 309 298 306 322 313 305 304 305 313 320 323 326 321 313 310 309 312 315 317 317 316 317 318 317 315 312
200 201 197 199 200 200 202 205 207 206 205 206 208 210 208 213 218 209 209 219 213 217 227 217 216 219 211 212 214 220 231 229 222 229 234 240 242 240 246 245 249 264 261 252 251 248 248 259 269 269 263 265 276 277 258 262 279 281 285 299 304 306 310 307 305 304 308 317 322 326 332 329 325 328 332 331 327 322 318 318 320 320 319 320 320
203 206 200 198 202 202 201 204 208 208 208 211 211 212 212 213 217 213 213 223 222 218 222 217 220 227 220 213 216 220 223 228 234 234 232 238 240 240 249 252 251 258 255 249 254 257 259 265 267 265 262 257 253 253 256 271 292 299 298 300 307 314 309 300 302 303 306 313 321 329 334 336 338 342 341 334 326 321 322 325 325 326 332 335 331
200 206 204 200 201 203 204 204 207 209 210 213 214 215 216 215 218 218 214 219 221 220 223 221 222 232 231 222 222 224 224 228 235 234 230 238 246 249 252 253 255 258 255 252 253 249 249 255 258 259 262 266 268 271 277 281 280 279 281 282 285 287 283 283 291 301 310 317 323 327 330 332 334 335 332 326 323 325 329 331 330 332 334 332 327
199 202 205 205 203 203 205 206 208 211 211 214 215 216 217 217 219 220 216 217 217 219 229 227 222 230 236 232 228 231 233 232 232 233 230 232 244 252 253 252 259 265 264 264 264 264 266 268 271 274 270 268 272 273 274 277 276 277 285 290 289 290 296 302 308 311 313 313 314 316 319 321 321 323 328 329 330 333 333 328 325 324 322 320 318
205 207 206 209 209 206 206 207 209 212 213 216 217 218 220 220 220 220 219 221 220 218 225 227 222 226 234 236 230 231 238 238 234 235 234 228 233 246 251 247 253 264 270 269 266 266 269 271 278 284 284 283 283 278 275 280 283 285 289 293 295 297 300 301 298 300 302 303 306 310 314 319 326 332 332 326 323 324 323 321 317 316 316 316 317
204 208 208 212 214 212 209 209 211 213 216 221 221 220 222 223 225 230 231 233 228 219 220 227 227 228 237 243 235 230 236 239 235 236 237 232 229 240 250 247 244 249 255 258 261 264 265 266 270 275 278 283 283 278 277 281 277 269 270 275 279 281 284 288 296 307 313 315 315 315 318 324 328 326 318 312 315 320 324 323 318 316 318 318 317
203 206 207 209 212 213 213 212 213 212 213 222 225 222 222 224 229 235 237 237 232 223 221 226 229 232 238 243 240 235 235 237 238 238 239 237 231 232 247 256 253 250 249 251 258 268 272 273 274 274 275 278 279 278 276 274 271 271 276 283 285 285 286 293 303 314 319 319 318 317 317 316 313 311 312 316 321 323 324 323 319 318 318 317 316
210 210 211 211 213 216 215 213 216 216 212 216 222 220 219 220 225 231 235 235 233 230 226 223 227 234 236 233 233 233 232 234 240 241 240 244 243 235 238 248 253 254 257 258 257 261 268 273 275 277 277 277 280 283 286 285 285 286 289 291 291 292 294 298 304 308 309 310 311 311 310 308 309 312 316 317 318 319 320 320 318 318 318 316 316
212 214 217 219 221 224 224 219 221 222 217 215 219 221 220 218 218 223 230 233 231 229 228 224 225 228 229 229 231 233 234 233 237 246 249 253 259 256 248 248 252 255 259 264 266 270 276 279 281 282 284 286 283 282 287 293 294 293 294 293 290 290 292 294 296 298 299 301 303 305 305 306 308 311 312 313 314 316 319 320 320 319 318 317 318
215 217 221 225 226 227 227 226 225 225 222 220 223 226 226 223 221 222 227 230 230 228 226 226 227 227 228 234 235 236 239 233 228 242 254 256 262 265 260 256 259 263 269 278 286 290 290 287 284 283 285 284 279 274 277 285 289 289 290 289 285 284 284 286 290 294 297 299 300 302 302 302 305 307 308 310 312 316 320 321 321 320 318 319 319
220 223 225 228 227 225 223 224 227 227 224 222 227 231 231 229 228 227 228 231 235 236 229 226 229 228 227 233 234 234 240 238 229 234 246 252 259 264 261 259 263 266 267 271 278 281 282 282 284 287 285 277 272 272 273 274 278 281 283 285 287 289 288 286 287 289 291 292 294 297 299 299 300 303 306 309 312 316 318 318 320 319 317 319 320
221 226 228 228 228 227 226 227 230 231 227 225 228 230 230 231 231 229 229 230 236 242 239 236 239 234 229 235 239 237 238 238 235 237 241 247 253 257 258 258 261 263 263 265 269 269 269 271 275 280 277 271 270 273 273 272 273 276 279 282 286 289 291 292 291 288 287 289 291 295 298 298 300 303 308 310 310 312 314 315 316 316 316 319 321
220 223 225 227 227 227 228 229 230 230 228 227 227 228 228 231 232 231 231 229 230 236 238 238 240 239 234 237 244 244 242 240 240 241 245 247 248 249 252 253 254 258 261 261 260 261 262 263 265 267 268 268 272 276 278 279 279 277 277 279 282 287 290 293 293 290 287 287 290 293 296 298 301 305 307 307 307 310 312 312 313 314 318 320 321
220 221 221 226 230 229 229 230 228 223 222 222 226 229 231 231 231 230 230 229 228 231 234 235 235 236 236 238 240 242 244 245 245 244 245 248 248 248 251 255 257 261 262 257 253 255 259 261 263 264 266 269 272 274 278 280 279 277 277 279 283 287 289 291 291 289 286 283 284 289 293 296 300 303 304 306 308 310 311 311 315 319 319 319 320
232 236 237 237 237 233 232 236 234 222 214 212 217 223 228 231 232 232 233 234 231 231 235 236 234 235 238 238 239 240 242 246 248 246 244 245 247 247 249 253 257 261 265 265 258 256 258 261 263 266 268 270 272 274 277 277 274 272 275 278 281 283 286 287 284 281 282 283 286 291 293 296 300 302 303 306 310 315 317 319 324 324 320 318 319
216 237 250 254 252 247 244 246 248 239 227 220 216 218 223 229 234 236 237 239 239 238 242 241 236 234 234 235 237 240 243 245 247 247 244 243 246 247 247 250 255 260 266 267 262 258 260 263 264 265 267 269 271 272 273 271 270 271 274 277 279 281 284 283 277 276 281 285 290 293 295 298 302 301 303 310 319 325 323 320 323 324 320 318 317
70 76 83 232 238 240 241 241 243 245 245 240 232 229 230 233 238 242 244 244 243 242 243 242 239 236 237 238 238 237 240 242 243 244 245 244 245 248 248 250 254 259 263 264 262 260 261 263 264 265 266 267 268 269 272 274 275 276 277 277 277 278 278 278 279 283 286 289 292 295 298 301 302 303 313 326 330 326 322 320 322 324 322 319 319
64 56 51 53 64 82 109 140 183 203 225 246 241 236 237 240 242 246 251 249 244 240 242 244 243 240 238 240 240 237 237 240 241 243 246 245 246 250 252 253 255 259 262 263 262 261 262 264 266 266 265 265 267 271 277 282 284 282 281 282 282 281 281 281 283 286 288 291 294 298 302 303 304 314 332 338 325 320 320 318 318 323 323 318 317
95 91 81 69 62 73 88 86 77 75 68 49 41 118 207 230 236 236 249 247 236 232 236 241 242 239 236 238 240 237 236 238 242 244 247 247 248 251 254 255 257 260 262 263 263 262 262 264 265 264 263 266 269 273 278 283 287 289 290 289 288 288 286 285 284 285 286 289 293 298 304 308 315 326 326 310 306 306 296 291 299 308 310 307 308
115 125 127 118 96 91 95 90 80 73 66 56 49 54 70 83 107 157 195 247 228 227 231 231 238 242 237 236 239 238 235 237 241 244 246 246 247 250 253 255 257 259 257 255 255 257 257 258 260 263 264 267 270 273 278 285 294 299 300 296 292 289 287 286 287 287 286 287 292 300 308 311 311 303 286 284 292 294 292 299 309 312 311 310 312
101 107 111 109 103 102 103 100 93 82 75 72 64 59 65 76 86 98 75 53 68 141 169 175 212 250 248 243 248 249 242 239 243 250 253 248 238 235 241 248 253 255 253 247 245 248 251 254 258 261 263 266 271 275 280 288 297 301 302 299 294 291 289 291 294 293 289 287 291 298 304 302 300 300 300 299 301 303 309 318 324 324 322 321 321
92 82 76 74 69 68 77 91 99 94 88 82 71 60 58 60 65 63 56 61 79 83 70 68 71 58 40 1 296 274 263 251 253 270 285 270 229 206 213 232 238 237 242 244 242 245 249 252 254 254 256 264 272 278 284 290 293 294 297 295 294 296 299 303 304 300 296 295 298 297 298 301 305 309 311 310 309 313 320 325 328 328 324 322 323
78 78 69 60 52 49 47 47 64 85 89 85 84 82 73 61 61 57 45 46 75 83 69 52 42 37 31 26 25 26 31 90 132 90 22 350 100 106 129 195 217 209 212 229 246 257 260 255 248 244 245 250 259 272 286 293 297 299 297 292 295 304 313 312 303 296 298 303 306 302 299 303 310 313 313 313 314 319 324 327 325 321 316 315 317
55 57 51 46 52 52 39 29 36 49 50 46 53 66 68 65 80 82 56 37 58 94 98 88 68 42 18 11 25 53 73 94 103 80 57 47 50 51 54 49 37 183 202 233 270 280 269 259 261 265 262 262 271 282 289 296 305 307 293 283 304 336 329 316 299 294 298 300 298 296 300 310 317 320 319 318 320 324 326 322 315 311 312 315 317
46 39 32 31 36 43 48 44 38 37 46 60 68 70 73 86 151 158 138 116 110 116 123 137 137 111 83 84 117 132 132 108 351 354 347 348 355 356 355 350 339 336 323 289 282 283 273 271 286 295 291 291 298 302 305 315 323 319 304 260 232 302 310 304 295 292 292 291 288 295 309 318 323 324 321 318 321 324 318 309 307 311 317 320 321
60 43 35 32 28 29 47 58 50 21 18 138 135 130 135 155 238 186 168 161 154 147 149 173 183 174 140 131 147 161 183 254 287 295 303 307 306 312 324 323 315 316 316 300 290 292 291 291 299 300 294 302 321 336 349 346 331 329 343 304 277 306 306 290 282 280 278 279 289 303 313 318 318 315 315 318 320 314 305 305 312 319 323 324 325
91 83 84 78 56 41 31 44 85 67 24 343 200 191 211 259 312 316 182 192 201 208 218 216 207 206 205 201 203 212 225 247 266 275 283 288 289 293 300 303 301 300 301 299 297 297 295 296 300 297 292 305 325 339 340 330 326 353 28 278 292 324 296 263 268 278 279 284 296 305 310 311 309 310 317 321 312 303 307 318 326 327 326 326 325
104 134 154 161 131 91 67 97 166 131 88 49 353 325 322 338 355 4 328 231 234 242 250 251 245 238 232 230 237 246 253 261 267 272 277 280 284 288 292 294 296 295 296 297 297 295 286 275 280 359 342 311 305 310 309 300 298 13 134 240 281 290 260 257 269 279 283 289 299 304 304 302 305 316 325 317 305 308 320 331 330 323 323 324 322
86 250 234 224 225 226 239 257 229 192 160 123 11 6 12 8 2 358 352 338 299 272 266 261 260 262 261 257 255 256 261 264 267 271 274 276 280 284 286 289 291 293 296 299 298 297 280 240 169 42 338 299 285 283 283 274 260 254 258 262 263 264 266 269 274 280 288 296 301 301 300 303 313 324 319 305 306 318 329 330 325 323 324 324 323
161 193 215 204 216 234 244 256 256 235 228 254 273 85 40 4 353 350 352 1 5 350 328 306 286 279 278 279 276 273 271 271 272 275 276 277 279 280 281 287 290 294 300 304 309 302 256 195 130 55 324 295 289 282 273 263 252 249 252 254 259 273 283 283 283 289 300 305 302 300 303 310 317 314 307 308 319 328 329 326 325 325 325 326 324
162 174 187 183 196 220 236 297 318 334 326 310 321 110 103 354 339 341 346 357 7 2 352 346 336 324 313 307 304 298 290 286 284 282 280 283 287 288 291 297 301 308 319 329 348 329 215 164 114 18 304 279 272 265 253 249 247 247 258 272 282 291 292 290 293 303 312 309 303 307 314 317 315 312 315 323 330 329 326 325 325 326 327 324 320
144 136 130 125 129 90 51 26 9 17 19 6 35 78 92 297 330 348 346 352 355 349 346 346 339 332 334 334 327 319 315 310 305 298 293 292 294 297 308 315 327 20 30 27 32 31 163 150 108 320 275 249 249 256 263 275 276 278 289 299 304 299 293 299 310 320 318 307 307 319 328 328 326 328 330 330 327 324 324 326 326 326 324 320 318
136 129 128 93 68 44 21 13 10 9 9 9 24 39 327 340 11 13 348 348 350 343 342 342 334 330 340 343 335 330 333 337 335 331 329 321 311 318 331 332 16 56 26 7 14 26 111 146 316 292 268 257 265 269 275 286 292 295 291 286 285 282 285 301 316 313 304 305 316 332 339 334 332 332 328 324 323 324 324 324 322 321 321 320 320
141 145 194 158 109 9 350 357 356 354 358 360 358 359 14 22 14 352 341 351 354 339 332 327 320 326 343 347 334 327 335 351 2 8 15 12 3 3 9 15 65 57 13 348 350 4 4 356 329 304 291 286 280 276 278 282 283 283 278 272 270 272 275 281 286 285 295 317 331 336 332 326 325 324 322 322 324 324 322 322 322 322 321 319 315
199 225 238 226 233 291 318 340 345 342 344 348 351 0 18 21 357 349 355 343 316 298 301 308 316 330 343 336 315 311 323 350 14 27 37 34 29 29 33 36 41 33 1 329 326 337 322 294 274 268 272 278 276 271 269 267 264 268 275 278 278 278 278 281 286 290 304 325 331 325 318 315 314 314 315 317 318 320 323 323 320 316 313 311 311
237 243 242 241 251 273 293 312 330 337 343 351 358 358 351 338 336 339 336 327 322 323 330 335 327 328 330 310 297 302 313 325 327 312 335 49 36 25 20 20 11 347 325 319 321 296 269 256 251 250 248 247 248 250 251 250 250 255 267 281 287 287 285 288 292 295 302 311 311 307 307 310 312 314 316 317 318 318 317 314 313 313 315 317 319
246 247 245 249 259 269 286 303 316 329 344 353 347 326 317 324 334 330 317 322 327 323 330 334 300 275 260 259 271 284 293 300 303 299 286 285 39 343 270 240 324 329 333 343 330 302 282 267 258 260 262 258 253 253 255 255 255 256 259 269 284 292 294 296 297 294 290 290 291 289 286 289 296 302 308 311 313 311 306 306 311 316 319 320 318
252 255 252 252 261 268 275 286 298 305 290 258 267 283 293 293 291 284 283 293 303 302 316 316 286 271 268 268 270 275 281 288 296 303 301 281 260 257 239 224 216 209 18 348 318 307 298 282 264 259 265 269 267 265 264 262 260 258 257 257 260 263 268 274 278 279 278 276 278 281 283 283 283 283 286 292 297 298 300 305 311 314 315 314 311
244 251 253 251 252 258 267 281 291 276 260 266 283 292 285 271 275 281 279 274 273 271 280 291 282 277 279 280 278 281 287 291 299 306 306 290 290 295 272 254 244 232 250 271 259 259 286 289 275 264 264 267 269 271 270 267 263 259 258 260 261 259 256 254 255 261 266 267 269 275 281 283 282 282 285 291 295 298 302 306 308 308 309 309 309
224 233 248 252 251 254 259 264 259 257 267 282 294 292 278 269 274 278 273 265 263 261 255 264 279 284 287 286 286 290 296 303 313 322 323 310 306 298 277 263 257 252 259 264 256 247 254 271 277 274 270 268 269 272 275 275 271 266 264 264 264 265 267 268 267 268 270 272 274 277 281 285 288 289 291 295 299 303 306 306 306 306 305 303 303
210 211 228 240 245 248 244 227 223 244 264 277 280 276 277 282 285 285 278 267 264 264 258 258 272 288 296 299 301 303 307 315 337 346 328 304 287 281 275 268 265 265 262 258 256 256 257 256 259 267 273 273 274 276 280 282 280 277 275 274 272 270 271 271 271 272 275 278 280 282 284 287 291 295 297 298 301 305 304 300 300 302 304 303 302
218 218 220 227 237 240 235 231 233 238 243 250 258 265 274 283 289 290 279 262 257 263 265 266 273 284 293 302 309 315 319 319 319 319 316 313 310 306 299 287 276 275 271 262 256 260 263 262 263 267 272 279 287 292 294 293 294 297 297 294 287 281 276 274 275 278 279 281 283 283 285 287 290 293 296 298 301 306 307 303 300 300 301 302 302
233 236 237 241 248 251 251 251 252 252 252 257 262 268 275 282 287 286 274 264 263 264 262 263 266 271 280 293 305 314 316 314 313 312 307 303 308 314 308 289 274 273 273 270 267 268 270 272 274 276 277 279 283 285 286 292 308 320 310 297 290 287 285 284 284 284 282 282 283 284 286 288 290 291 293 294 296 300 304 306 305 303 301 300 299
226 241 246 249 251 254 259 262 263 265 267 266 264 262 261 270 276 272 261 254 251 249 250 254 260 267 278 289 298 300 296 294 299 307 306 305 312 319 312 296 283 280 285 286 284 281 279 278 280 284 284 283 284 285 282 283 296 307 293 284 282 283 285 285 285 283 282 283 285 286 287 289 289 291 292 292 291 291 293 296 299 300 300 299 299
232 241 246 251 250 250 253 254 250 251 255 257 256 252 247 251 259 258 251 251 257 260 262 265 267 272 279 281 282 284 284 286 296 307 308 309 314 313 302 289 283 288 297 299 295 292 289 284 286 293 295 293 296 298 292 287 286 278 275 276 278 278 278 278 280 280 281 282 283 285 287 288 290 292 292 292 292 292 292 292 294 296 297 298 299
245 245 242 245 246 245 247 249 249 252 258 262 262 257 248 243 246 245 244 253 265 270 274 278 280 282 282 282 282 285 287 292 301 305 303 304 307 306 301 299 297 295 296 296 293 290 285 283 290 302 303 298 299 302 300 298 293 273 267 271 276 278 277 278 279 280 282 283 283 284 286 288 290 291 293 295 296 298 298 298 299 300 299 299 299
240 237 234 238 239 237 237 239 244 252 263 270 269 263 255 248 244 243 244 249 257 260 260 262 264 267 269 271 276 285 291 296 299 299 300 304 306 306 307 307 300 291 289 291 289 285 285 289 299 304 299 292 293 295 298 301 295 278 271 273 277 279 280 282 283 283 284 286 287 288 290 292 293 294 296 298 300 302 302 303 303 303 303 303 302
228 224 227 233 236 235 235 237 237 239 247 254 255 258 259 256 248 248 252 253 252 252 250 249 251 263 272 274 278 287 293 295 295 297 300 303 304 305 306 306 302 299 298 296 292 290 295 302 304 299 296 298 300 300 300 297 284 276 275 277 279 281 282 283 285 287 289 291 294 297 299 301 301 302 303 305 307 308 308 308 306 305 306 307 305
227 225 223 226 233 236 238 240 240 238 241 250 256 259 261 259 255 259 264 260 257 259 261 262 266 273 277 278 283 287 288 287 289 293 297 300 301 304 305 306 307 306 304 300 298 304 311 312 306 302 303 304 302 303 308 301 282 276 278 281 282 284 286 288 290 293 296 300 304 308 309 310 310 311 312 314 314 312 310 309 307 306 307 307 307